Weather History for Mattoon, IL

Change the Weather History Date:

Monday, September 23, 2013

  Actual Average Record
Temperature  
Mean Temperature 36 °F 64 °F  
Max Temperature 75 °F 75 °F 91 °F (2007)
Min Temperature 0 °F 52 °F 0 °F (2013)
Degree Days  
Heating Degree Days 28 4  
Month to date heating degree days 30 31  
Since 1 July heating degree days 40 36  
Growing Degree Days 0 (Base 50)    
Moisture  
Dew Point 44 °F    
Average Humidity 67    
Maximum Humidity 100    
Minimum Humidity 33    
Precipitation  
Precipitation 0.00 in 0.09 in 1.21 in (1955)
Month to date precipitation 0.35 2.32  
Year to date precipitation 38.60 28.22  
Sea Level Pressure  
Sea Level Pressure 30.02 in    
Wind  
Wind Speed 6 mph (ESE)    
Max Wind Speed 13 mph    
Max Gust Speed 18 mph    
Visibility 10 miles    
Events      
T = Trace of Precipitation, MM = Missing Value Source: NWS Daily Summary

Daily Weather History Graph

Daily Weather History Graph

Search for Another Location

Airport:

Trip Planner

Search our weather history database for the weather conditions in past years. The results will help you decide how hot, cold, wet, or windy it might be!

Date:

Astronomy

Sep. 23, 2013 Rise Set
Actual Time 6:41 AM CDT 6:48 PM CDT
Civil Twilight 6:15 AM CDT 7:14 PM CDT
Nautical Twilight 5:43 AM CDT 7:46 PM CDT
Astronomical Twilight 5:11 AM CDT 8:17 PM CDT
Moon 9:21 PM CDT (9/23) 10:59 AM CDT (9/23)
Length of Visible Light 12h 59m
Length of Day
12h 06m
Waning Gibbous, 81% of the Moon is Illuminated
Sep 23
Waning Gibbous
Sep 26
Last Quarter
Oct 4
New
Oct 11
First Quarter
Oct 18
Full

Hourly Weather History & Observations

Time (CDT) Temp. Dew Point Humidity Pressure Visibility Wind Dir Wind Speed Gust Speed Precip Events Conditions
12:53 AM 51.1 °F 46.9 °F 86% 30.01 in 10.0 mi NNE 3.5 mph - N/A   Clear
1:53 AM 48.9 °F 46.0 °F 90% 30.02 in 10.0 mi Calm Calm - N/A   Clear
2:53 AM 48.0 °F 46.0 °F 93% 30.00 in 10.0 mi Calm Calm - N/A   Clear
3:53 AM 48.9 °F 45.0 °F 86% 30.00 in 10.0 mi Calm Calm - N/A   Clear
4:53 AM -0.9 °F -0.9 °F 100% 30.03 in 10.0 mi Calm Calm - N/A   Unknown
5:53 AM 46.9 °F 45.0 °F 93% 30.04 in 10.0 mi Calm Calm - N/A   Unknown
6:53 AM 46.0 °F 44.1 °F 93% 30.06 in 10.0 mi Calm Calm - N/A   Clear
7:53 AM 50.0 °F 46.9 °F 89% 30.07 in 10.0 mi ESE 3.5 mph - N/A   Clear
8:53 AM 57.0 °F 48.9 °F 74% 30.08 in 10.0 mi SE 10.4 mph - N/A   Clear
9:53 AM 63.0 °F 48.0 °F 58% 30.08 in 10.0 mi SE 9.2 mph - N/A   Clear
10:53 AM 66.9 °F 46.0 °F 47% 30.08 in 10.0 mi SE 12.7 mph - N/A   Clear
11:53 AM 69.1 °F 45.0 °F 42% 30.06 in 10.0 mi SE 13.8 mph 17.3 mph N/A   Clear
12:53 PM 71.1 °F 44.1 °F 38% 30.04 in 10.0 mi ESE 9.2 mph 18.4 mph N/A   Clear
1:53 PM 73.0 °F 44.1 °F 35% 30.02 in 10.0 mi SSE 6.9 mph 16.1 mph N/A   Clear
2:53 PM 73.9 °F 43.0 °F 33% 30.01 in 10.0 mi ENE 10.4 mph - N/A   Clear
3:53 PM 73.9 °F 43.0 °F 33% 29.99 in 10.0 mi ESE 8.1 mph - N/A   Clear
4:53 PM 73.9 °F 43.0 °F 33% 30.01 in 10.0 mi Variable 6.9 mph - N/A   Clear
5:53 PM 71.1 °F 46.0 °F 41% 29.99 in 10.0 mi ESE 5.8 mph - N/A   Clear
6:53 PM 63.0 °F 46.9 °F 56% 30.00 in 10.0 mi ESE 5.8 mph - N/A   Clear
7:53 PM 59.0 °F 48.0 °F 67% 30.00 in 10.0 mi ESE 5.8 mph - N/A   Clear
8:53 PM 57.0 °F 48.0 °F 72% 30.01 in 10.0 mi ESE 5.8 mph - N/A   Clear
9:53 PM 55.0 °F 48.9 °F 80% 30.00 in 10.0 mi ESE 5.8 mph - N/A   Clear
10:53 PM 55.9 °F 48.9 °F 77% 30.00 in 10.0 mi ESE 5.8 mph - N/A   Clear
11:53 PM 55.9 °F 48.9 °F 77% 29.99 in 10.0 mi SE 9.2 mph - N/A   Clear